Year,Month,Day,Hour,Minute,Value (Times are PST for temperature in C)
2014,08,09,00,00,15.60
2014,08,09,00,01,15.60
2014,08,09,00,02,15.60
2014,08,09,00,03,15.60
2014,08,09,00,04,15.60
2014,08,09,00,05,15.60
2014,08,09,00,06,15.60
2014,08,09,00,07,15.60
2014,08,09,00,08,15.70
2014,08,09,00,09,15.80
2014,08,09,00,10,15.80
2014,08,09,00,11,15.90
2014,08,09,00,12,16.00
2014,08,09,00,13,16.10
2014,08,09,00,14,16.20
2014,08,09,00,15,16.20
2014,08,09,00,16,16.20
2014,08,09,00,17,16.30
2014,08,09,00,18,16.30
2014,08,09,00,19,16.30
2014,08,09,00,20,16.30
2014,08,09,00,21,16.20
2014,08,09,00,22,16.20
2014,08,09,00,23,16.20
2014,08,09,00,24,16.10
2014,08,09,00,25,16.10
2014,08,09,00,26,16.10
2014,08,09,00,27,16.00
2014,08,09,00,28,16.00
2014,08,09,00,29,15.90
2014,08,09,00,30,15.90
2014,08,09,00,31,15.90
2014,08,09,00,32,15.90
2014,08,09,00,33,15.90
2014,08,09,00,34,15.90
2014,08,09,00,35,15.90
2014,08,09,00,36,15.90
2014,08,09,00,37,15.90
2014,08,09,00,38,15.90
2014,08,09,00,39,15.90
2014,08,09,00,40,15.90
2014,08,09,00,41,15.90
2014,08,09,00,42,15.90
2014,08,09,00,43,15.80
2014,08,09,00,44,15.80
2014,08,09,00,45,15.80
2014,08,09,00,46,15.80
2014,08,09,00,47,15.80
2014,08,09,00,48,15.70
2014,08,09,00,49,15.70
2014,08,09,00,50,15.70
2014,08,09,00,51,15.70
2014,08,09,00,52,15.70
2014,08,09,00,53,15.70
2014,08,09,00,54,15.70
2014,08,09,00,55,15.70
2014,08,09,00,56,15.70
2014,08,09,00,57,15.60
2014,08,09,00,58,15.60
2014,08,09,00,59,15.60
2014,08,09,01,00,15.60
2014,08,09,01,01,15.60
2014,08,09,01,02,15.60
2014,08,09,01,03,15.60
2014,08,09,01,04,15.60
2014,08,09,01,05,15.60
2014,08,09,01,06,15.50
2014,08,09,01,07,15.50
2014,08,09,01,08,15.50
2014,08,09,01,09,15.50
2014,08,09,01,10,15.60
2014,08,09,01,11,15.60
2014,08,09,01,12,15.60
2014,08,09,01,13,15.60
2014,08,09,01,14,15.60
2014,08,09,01,15,15.60
2014,08,09,01,16,15.60
2014,08,09,01,17,15.60
2014,08,09,01,18,15.70
2014,08,09,01,19,15.70
2014,08,09,01,20,15.70
2014,08,09,01,21,15.70
2014,08,09,01,22,15.70
2014,08,09,01,23,15.70
2014,08,09,01,24,15.80
2014,08,09,01,25,15.80
2014,08,09,01,26,15.80
2014,08,09,01,27,15.80
2014,08,09,01,28,15.80
2014,08,09,01,29,15.80
2014,08,09,01,30,15.80
2014,08,09,01,31,15.70
2014,08,09,01,32,15.70
2014,08,09,01,33,15.70
2014,08,09,01,34,15.70
2014,08,09,01,35,15.70
2014,08,09,01,36,15.70
2014,08,09,01,37,15.70
2014,08,09,01,38,15.80
2014,08,09,01,39,15.80
2014,08,09,01,40,15.80
2014,08,09,01,41,15.90
2014,08,09,01,42,15.90
2014,08,09,01,43,15.90
2014,08,09,01,44,15.90
2014,08,09,01,45,16.00
2014,08,09,01,46,16.00
2014,08,09,01,47,16.00
2014,08,09,01,48,16.00
2014,08,09,01,49,16.00
2014,08,09,01,50,16.00
2014,08,09,01,51,15.90
2014,08,09,01,52,15.90
2014,08,09,01,53,15.90
2014,08,09,01,54,15.90
2014,08,09,01,55,15.90
2014,08,09,01,56,15.90
2014,08,09,01,57,15.80
2014,08,09,01,58,15.80
2014,08,09,01,59,15.80
2014,08,09,02,00,15.80
2014,08,09,02,01,15.80
2014,08,09,02,02,15.70
2014,08,09,02,03,15.70
2014,08,09,02,04,15.70
2014,08,09,02,05,15.60
2014,08,09,02,06,15.60
2014,08,09,02,07,15.60
2014,08,09,02,08,15.60
2014,08,09,02,09,15.60
2014,08,09,02,10,15.60
2014,08,09,02,11,15.60
2014,08,09,02,12,15.60
2014,08,09,02,13,15.60
2014,08,09,02,14,15.60
2014,08,09,02,15,15.60
2014,08,09,02,16,15.50
2014,08,09,02,17,15.50
2014,08,09,02,18,15.40
2014,08,09,02,19,15.40
2014,08,09,02,20,15.40
2014,08,09,02,21,15.40
2014,08,09,02,22,15.30
2014,08,09,02,23,15.30
2014,08,09,02,24,15.30
2014,08,09,02,25,15.20
2014,08,09,02,26,15.20
2014,08,09,02,27,15.10
2014,08,09,02,28,15.10
2014,08,09,02,29,15.00
2014,08,09,02,30,15.00
2014,08,09,02,31,14.90
2014,08,09,02,32,14.90
2014,08,09,02,33,14.90
2014,08,09,02,34,14.80
2014,08,09,02,35,14.80
2014,08,09,02,36,14.80
2014,08,09,02,37,14.80
2014,08,09,02,38,14.80
2014,08,09,02,39,14.80
2014,08,09,02,40,14.80
2014,08,09,02,41,14.70
2014,08,09,02,42,14.70
2014,08,09,02,43,14.70
2014,08,09,02,44,14.70
2014,08,09,02,45,14.60
2014,08,09,02,46,14.60
2014,08,09,02,47,14.60
2014,08,09,02,48,14.50
2014,08,09,02,49,14.50
2014,08,09,02,50,14.40
2014,08,09,02,51,14.40
2014,08,09,02,52,14.40
2014,08,09,02,53,14.30
2014,08,09,02,54,14.30
2014,08,09,02,55,14.30
2014,08,09,02,56,14.30
2014,08,09,02,57,14.20
2014,08,09,02,58,14.20
2014,08,09,02,59,14.20
2014,08,09,03,00,14.20
2014,08,09,03,01,14.20
2014,08,09,03,02,14.10
2014,08,09,03,03,14.10
2014,08,09,03,04,14.10
2014,08,09,03,05,14.10
2014,08,09,03,06,14.00
2014,08,09,03,07,14.00
2014,08,09,03,08,14.00
2014,08,09,03,09,14.00
2014,08,09,03,10,13.90
2014,08,09,03,11,13.90
2014,08,09,03,12,13.90
2014,08,09,03,13,13.90
2014,08,09,03,14,13.90
2014,08,09,03,15,13.90
2014,08,09,03,16,13.90
2014,08,09,03,17,13.80
2014,08,09,03,18,13.80
2014,08,09,03,19,13.80
2014,08,09,03,20,13.80
2014,08,09,03,21,13.80
2014,08,09,03,22,13.80
2014,08,09,03,23,13.70
2014,08,09,03,24,13.70
2014,08,09,03,25,13.70
2014,08,09,03,26,13.70
2014,08,09,03,27,13.70
2014,08,09,03,28,13.60
2014,08,09,03,29,13.60
2014,08,09,03,30,13.60
2014,08,09,03,31,13.60
2014,08,09,03,32,13.60
2014,08,09,03,33,13.60
2014,08,09,03,34,13.60
2014,08,09,03,35,13.60
2014,08,09,03,36,13.60
2014,08,09,03,37,13.60
2014,08,09,03,38,13.60
2014,08,09,03,39,13.60
2014,08,09,03,40,13.70
2014,08,09,03,41,13.70
2014,08,09,03,42,13.70
2014,08,09,03,43,13.70
2014,08,09,03,44,13.70
2014,08,09,03,45,13.80
2014,08,09,03,46,13.80
2014,08,09,03,47,13.80
2014,08,09,03,48,13.80
2014,08,09,03,49,13.80
2014,08,09,03,50,13.80
2014,08,09,03,51,13.80
2014,08,09,03,52,13.80
2014,08,09,03,53,13.70
2014,08,09,03,54,13.70
2014,08,09,03,55,13.70
2014,08,09,03,56,13.70
2014,08,09,03,57,13.70
2014,08,09,03,58,13.70
2014,08,09,03,59,13.70
2014,08,09,04,00,13.70
2014,08,09,04,01,13.70
2014,08,09,04,02,13.80
2014,08,09,04,03,13.80
2014,08,09,04,04,13.80
2014,08,09,04,05,13.80
2014,08,09,04,06,13.80
2014,08,09,04,07,13.80
2014,08,09,04,08,13.80
2014,08,09,04,09,13.80
2014,08,09,04,10,13.80
2014,08,09,04,11,13.80
2014,08,09,04,12,13.80
2014,08,09,04,13,13.80
2014,08,09,04,14,13.80
2014,08,09,04,15,13.70
2014,08,09,04,16,13.70
2014,08,09,04,17,13.70
2014,08,09,04,18,13.70
2014,08,09,04,19,13.70
2014,08,09,04,20,13.70
2014,08,09,04,21,13.60
2014,08,09,04,22,13.60
2014,08,09,04,23,13.60
2014,08,09,04,24,13.60
2014,08,09,04,25,13.60
2014,08,09,04,26,13.60
2014,08,09,04,27,13.60
2014,08,09,04,28,13.60
2014,08,09,04,29,13.60
2014,08,09,04,30,13.60
2014,08,09,04,31,13.60
2014,08,09,04,32,13.60
2014,08,09,04,33,13.50
2014,08,09,04,34,13.50
2014,08,09,04,35,13.40
2014,08,09,04,36,13.40
2014,08,09,04,37,13.40
2014,08,09,04,38,13.30
2014,08,09,04,39,13.30
2014,08,09,04,40,13.30
2014,08,09,04,41,13.20
2014,08,09,04,42,13.20
2014,08,09,04,43,13.20
2014,08,09,04,44,13.20
2014,08,09,04,45,13.20
2014,08,09,04,46,13.20
2014,08,09,04,47,13.10
2014,08,09,04,48,13.10
2014,08,09,04,49,13.10
2014,08,09,04,50,13.10
2014,08,09,04,51,13.10
2014,08,09,04,52,13.10
2014,08,09,04,53,13.10
2014,08,09,04,54,13.10
2014,08,09,04,55,13.10
2014,08,09,04,56,13.00
2014,08,09,04,57,13.00
2014,08,09,04,58,13.00
2014,08,09,04,59,13.00
2014,08,09,05,00,13.00
2014,08,09,05,01,12.90
2014,08,09,05,02,12.90
2014,08,09,05,03,12.90
2014,08,09,05,04,12.90
2014,08,09,05,05,12.90
2014,08,09,05,06,12.90
2014,08,09,05,07,12.90
2014,08,09,05,08,12.90
2014,08,09,05,09,12.90
2014,08,09,05,10,12.90
2014,08,09,05,11,12.90
2014,08,09,05,12,12.80
2014,08,09,05,13,12.80
2014,08,09,05,14,12.80
2014,08,09,05,15,12.80
2014,08,09,05,16,12.80
2014,08,09,05,17,12.80
2014,08,09,05,18,12.80
2014,08,09,05,19,12.80
2014,08,09,05,20,12.90
2014,08,09,05,21,12.90
2014,08,09,05,22,12.90
2014,08,09,05,23,13.00
2014,08,09,05,24,13.00
2014,08,09,05,25,13.10
2014,08,09,05,26,13.10
2014,08,09,05,27,13.10
2014,08,09,05,28,13.20
2014,08,09,05,29,13.20
2014,08,09,05,30,13.10
2014,08,09,05,31,13.10
2014,08,09,05,32,13.00
2014,08,09,05,33,13.00
2014,08,09,05,34,12.90
2014,08,09,05,35,12.90
2014,08,09,05,36,12.90
2014,08,09,05,37,12.90
2014,08,09,05,38,12.80
2014,08,09,05,39,12.80
2014,08,09,05,40,12.80
2014,08,09,05,41,12.80
2014,08,09,05,42,12.80
2014,08,09,05,43,12.70
2014,08,09,05,44,12.70
2014,08,09,05,45,12.70
2014,08,09,05,46,12.70
2014,08,09,05,47,12.60
2014,08,09,05,48,12.60
2014,08,09,05,49,12.60
2014,08,09,05,50,12.60
2014,08,09,05,51,12.50
2014,08,09,05,52,12.50
2014,08,09,05,53,12.50
2014,08,09,05,54,12.40
2014,08,09,05,55,12.40
2014,08,09,05,56,12.40
2014,08,09,05,57,12.40
2014,08,09,05,58,12.30
2014,08,09,05,59,12.30
2014,08,09,06,00,12.30
2014,08,09,06,01,12.30
2014,08,09,06,02,12.30
2014,08,09,06,03,12.30
2014,08,09,06,04,12.30
2014,08,09,06,05,12.30
2014,08,09,06,06,12.30
2014,08,09,06,07,12.30
2014,08,09,06,08,12.30
2014,08,09,06,09,12.30
2014,08,09,06,10,12.30
2014,08,09,06,11,12.30
2014,08,09,06,12,12.30
2014,08,09,06,13,12.20
2014,08,09,06,14,12.20
2014,08,09,06,15,12.20
2014,08,09,06,16,12.20
2014,08,09,06,17,12.20
2014,08,09,06,18,12.20
2014,08,09,06,19,12.20
2014,08,09,06,20,12.20
2014,08,09,06,21,12.20
2014,08,09,06,22,12.20
2014,08,09,06,23,12.20
2014,08,09,06,24,12.20
2014,08,09,06,25,12.20
2014,08,09,06,26,12.30
2014,08,09,06,27,12.30
2014,08,09,06,28,12.30
2014,08,09,06,29,12.30
2014,08,09,06,30,12.30
2014,08,09,06,31,12.30
2014,08,09,06,32,12.30
2014,08,09,06,33,12.40
2014,08,09,06,34,12.40
2014,08,09,06,35,12.40
2014,08,09,06,36,12.50
2014,08,09,06,37,12.50
2014,08,09,06,38,12.60
2014,08,09,06,39,12.60
2014,08,09,06,40,12.60
2014,08,09,06,41,12.70
2014,08,09,06,42,12.70
2014,08,09,06,43,12.80
2014,08,09,06,44,12.90
2014,08,09,06,45,12.90
2014,08,09,06,46,13.00
2014,08,09,06,47,13.10
2014,08,09,06,48,13.10
2014,08,09,06,49,13.20
2014,08,09,06,50,13.30
2014,08,09,06,51,13.30
2014,08,09,06,52,13.40
2014,08,09,06,53,13.40
2014,08,09,06,54,13.50
2014,08,09,06,55,13.50
2014,08,09,06,56,13.60
2014,08,09,06,57,13.60
2014,08,09,06,58,13.60
2014,08,09,06,59,13.70
2014,08,09,07,00,13.70
2014,08,09,07,01,13.70
2014,08,09,07,02,13.70
2014,08,09,07,03,13.80
2014,08,09,07,04,13.80
2014,08,09,07,05,13.80
2014,08,09,07,06,13.90
2014,08,09,07,07,13.90
2014,08,09,07,08,13.90
2014,08,09,07,09,14.00
2014,08,09,07,10,14.00
2014,08,09,07,11,14.10
2014,08,09,07,12,14.10
2014,08,09,07,13,14.10
2014,08,09,07,14,14.10
2014,08,09,07,15,14.20
2014,08,09,07,16,14.20
2014,08,09,07,17,14.20
2014,08,09,07,18,14.30
2014,08,09,07,19,14.30
2014,08,09,07,20,14.30
2014,08,09,07,21,14.30
2014,08,09,07,22,14.30
2014,08,09,07,23,14.30
2014,08,09,07,24,14.40
2014,08,09,07,25,14.40
2014,08,09,07,26,14.40
2014,08,09,07,27,14.50
2014,08,09,07,28,14.50
2014,08,09,07,29,14.60
2014,08,09,07,30,14.70
2014,08,09,07,31,14.70
2014,08,09,07,32,14.70
2014,08,09,07,33,14.80
2014,08,09,07,34,14.80
2014,08,09,07,35,14.80
2014,08,09,07,36,14.90
2014,08,09,07,37,14.90
2014,08,09,07,38,15.00
2014,08,09,07,39,15.10
2014,08,09,07,40,15.10
2014,08,09,07,41,15.20
2014,08,09,07,42,15.30
2014,08,09,07,43,15.30
2014,08,09,07,44,15.40
2014,08,09,07,45,15.40
2014,08,09,07,46,15.40
2014,08,09,07,47,15.40
2014,08,09,07,48,15.30
2014,08,09,07,49,15.30
2014,08,09,07,50,15.30
2014,08,09,07,51,15.30
2014,08,09,07,52,15.20
2014,08,09,07,53,15.20
2014,08,09,07,54,15.20
2014,08,09,07,55,15.10
2014,08,09,07,56,15.10
2014,08,09,07,57,15.00
2014,08,09,07,58,15.00
2014,08,09,07,59,14.90
2014,08,09,08,00,14.90
2014,08,09,08,01,14.90
2014,08,09,08,02,14.80
2014,08,09,08,03,14.80
2014,08,09,08,04,14.80
2014,08,09,08,05,14.80
2014,08,09,08,06,14.80
2014,08,09,08,07,14.80
2014,08,09,08,08,14.70
2014,08,09,08,09,14.70
2014,08,09,08,10,14.70
2014,08,09,08,11,14.70
2014,08,09,08,12,14.70
2014,08,09,08,13,14.70
2014,08,09,08,14,14.70
2014,08,09,08,15,14.70
2014,08,09,08,16,14.70
2014,08,09,08,17,14.70
2014,08,09,08,18,14.80
2014,08,09,08,19,14.80
2014,08,09,08,20,14.80
2014,08,09,08,21,14.80
2014,08,09,08,22,14.90
2014,08,09,08,23,14.90
2014,08,09,08,24,14.90
2014,08,09,08,25,15.00
2014,08,09,08,26,15.00
2014,08,09,08,27,15.10
2014,08,09,08,28,15.10
2014,08,09,08,29,15.10
2014,08,09,08,30,15.10
2014,08,09,08,31,15.10
2014,08,09,08,32,15.10
2014,08,09,08,33,15.00
2014,08,09,08,34,15.00
2014,08,09,08,35,15.10
2014,08,09,08,36,15.10
2014,08,09,08,37,15.10
2014,08,09,08,38,15.20
2014,08,09,08,39,15.20
2014,08,09,08,40,15.20
2014,08,09,08,41,15.20
2014,08,09,08,42,15.20
2014,08,09,08,43,15.20
2014,08,09,08,44,15.20
2014,08,09,08,45,15.20
2014,08,09,08,46,15.30
2014,08,09,08,47,15.30
2014,08,09,08,48,15.30
2014,08,09,08,49,15.30
2014,08,09,08,50,15.30
2014,08,09,08,51,15.30
2014,08,09,08,52,15.30
2014,08,09,08,53,15.30
2014,08,09,08,54,15.30
2014,08,09,08,55,15.30
2014,08,09,08,56,15.30
2014,08,09,08,57,15.40
2014,08,09,08,58,15.40
2014,08,09,08,59,15.40
2014,08,09,09,00,15.30
2014,08,09,09,01,15.40
2014,08,09,09,02,15.40
2014,08,09,09,03,15.40
2014,08,09,09,04,15.50
2014,08,09,09,05,15.50
2014,08,09,09,06,15.50
2014,08,09,09,07,15.40
2014,08,09,09,08,15.50
2014,08,09,09,09,15.50
2014,08,09,09,10,15.60
2014,08,09,09,11,15.60
2014,08,09,09,12,15.60
2014,08,09,09,13,15.60
2014,08,09,09,14,15.60
2014,08,09,09,15,15.60
2014,08,09,09,16,15.50
2014,08,09,09,17,15.50
2014,08,09,09,18,15.50
2014,08,09,09,19,15.60
2014,08,09,09,20,15.60
2014,08,09,09,21,15.70
2014,08,09,09,22,15.80
2014,08,09,09,23,15.80
2014,08,09,09,24,15.80
2014,08,09,09,25,15.80
2014,08,09,09,26,15.80
2014,08,09,09,27,15.80
2014,08,09,09,28,15.80
2014,08,09,09,29,15.80
2014,08,09,09,30,15.80
2014,08,09,09,31,15.90
2014,08,09,09,32,15.90
2014,08,09,09,33,15.90
2014,08,09,09,34,16.00
2014,08,09,09,35,16.00
2014,08,09,09,36,16.00
2014,08,09,09,37,16.00
2014,08,09,09,38,15.90
2014,08,09,09,39,15.90
2014,08,09,09,40,15.90
2014,08,09,09,41,15.90
2014,08,09,09,42,15.90
2014,08,09,09,43,15.90
2014,08,09,09,44,15.90
2014,08,09,09,45,15.80
2014,08,09,09,46,15.80
2014,08,09,09,47,15.80
2014,08,09,09,48,15.90
2014,08,09,09,49,15.90
2014,08,09,09,50,16.00
2014,08,09,09,51,16.00
2014,08,09,09,52,16.10
2014,08,09,09,53,16.10
2014,08,09,09,54,16.10
2014,08,09,09,55,16.10
2014,08,09,09,56,16.10
2014,08,09,09,57,16.10
2014,08,09,09,58,16.20
2014,08,09,09,59,16.20
2014,08,09,10,00,16.20
2014,08,09,10,01,16.20
2014,08,09,10,02,16.20
2014,08,09,10,03,16.20
2014,08,09,10,04,16.30
2014,08,09,10,05,16.30
2014,08,09,10,06,16.40
2014,08,09,10,07,16.50
2014,08,09,10,08,16.50
2014,08,09,10,09,16.60
2014,08,09,10,10,16.60
2014,08,09,10,11,16.60
2014,08,09,10,12,16.60
2014,08,09,10,13,16.70
2014,08,09,10,14,16.70
2014,08,09,10,15,16.70
2014,08,09,10,16,16.80
2014,08,09,10,17,16.80
2014,08,09,10,18,16.90
2014,08,09,10,19,16.90
2014,08,09,10,20,16.90
2014,08,09,10,21,16.90
2014,08,09,10,22,17.00
2014,08,09,10,23,17.00
2014,08,09,10,24,17.10
2014,08,09,10,25,17.10
2014,08,09,10,26,17.20
2014,08,09,10,27,17.20
2014,08,09,10,28,17.30
2014,08,09,10,29,17.30
2014,08,09,10,30,17.30
2014,08,09,10,31,17.30
2014,08,09,10,32,17.30
2014,08,09,10,33,17.30
2014,08,09,10,34,17.30
2014,08,09,10,35,17.40
2014,08,09,10,36,17.40
2014,08,09,10,37,17.40
2014,08,09,10,38,17.40
2014,08,09,10,39,17.40
2014,08,09,10,40,17.50
2014,08,09,10,41,17.60
2014,08,09,10,42,17.70
2014,08,09,10,43,17.80
2014,08,09,10,44,17.80
2014,08,09,10,45,17.80
2014,08,09,10,46,17.80
2014,08,09,10,47,17.80
2014,08,09,10,48,17.80
2014,08,09,10,49,17.80
2014,08,09,10,50,17.80
2014,08,09,10,51,17.80
2014,08,09,10,52,17.90
2014,08,09,10,53,18.00
2014,08,09,10,54,18.10
2014,08,09,10,55,18.10
2014,08,09,10,56,18.20
2014,08,09,10,57,18.20
2014,08,09,10,58,18.30
2014,08,09,10,59,18.40
2014,08,09,11,00,18.50
2014,08,09,11,01,18.50
2014,08,09,11,02,18.50
2014,08,09,11,03,18.60
2014,08,09,11,04,18.50
2014,08,09,11,05,18.50
2014,08,09,11,06,18.50
2014,08,09,11,07,18.60
2014,08,09,11,08,18.60
2014,08,09,11,09,18.60
2014,08,09,11,10,18.50
2014,08,09,11,11,18.50
2014,08,09,11,12,18.50
2014,08,09,11,13,18.40
2014,08,09,11,14,18.40
2014,08,09,11,15,18.40
2014,08,09,11,16,18.30
2014,08,09,11,17,18.30
2014,08,09,11,18,18.40
2014,08,09,11,19,18.40
2014,08,09,11,20,18.50
2014,08,09,11,21,18.60
2014,08,09,11,22,18.60
2014,08,09,11,23,18.60
2014,08,09,11,24,18.60
2014,08,09,11,25,18.60
2014,08,09,11,26,18.60
2014,08,09,11,27,18.60
2014,08,09,11,28,18.60
2014,08,09,11,29,18.60
2014,08,09,11,30,18.70
2014,08,09,11,31,18.70
2014,08,09,11,32,18.80
2014,08,09,11,33,18.80
2014,08,09,11,34,18.80
2014,08,09,11,35,18.90
2014,08,09,11,36,18.90
2014,08,09,11,37,18.90
2014,08,09,11,38,19.00
2014,08,09,11,39,19.10
2014,08,09,11,40,19.10
2014,08,09,11,41,19.10
2014,08,09,11,42,19.10
2014,08,09,11,43,19.10
2014,08,09,11,44,19.10
2014,08,09,11,45,19.20
2014,08,09,11,46,19.20
2014,08,09,11,47,19.20
2014,08,09,11,48,19.30
2014,08,09,11,49,19.30
2014,08,09,11,50,19.30
2014,08,09,11,51,19.30
2014,08,09,11,52,19.30
2014,08,09,11,53,19.30
2014,08,09,11,54,19.30
2014,08,09,11,55,19.20
2014,08,09,11,56,19.20
2014,08,09,11,57,19.20
2014,08,09,11,58,19.20
2014,08,09,11,59,19.30
2014,08,09,12,00,19.30
2014,08,09,12,01,19.30
2014,08,09,12,02,19.40
2014,08,09,12,03,19.40
2014,08,09,12,04,19.50
2014,08,09,12,05,19.60
2014,08,09,12,06,19.70
2014,08,09,12,07,19.70
2014,08,09,12,08,19.70
2014,08,09,12,09,19.70
2014,08,09,12,10,19.70
2014,08,09,12,11,19.70
2014,08,09,12,12,19.70
2014,08,09,12,13,19.70
2014,08,09,12,14,19.80
2014,08,09,12,15,19.80
2014,08,09,12,16,19.80
2014,08,09,12,17,19.90
2014,08,09,12,18,19.90
2014,08,09,12,19,20.00
2014,08,09,12,20,20.10
2014,08,09,12,21,20.20
2014,08,09,12,22,20.30
2014,08,09,12,23,20.40
2014,08,09,12,24,20.30
2014,08,09,12,25,20.30
2014,08,09,12,26,20.40
2014,08,09,12,27,20.40
2014,08,09,12,28,20.50
2014,08,09,12,29,20.60
2014,08,09,12,30,20.70
2014,08,09,12,31,20.80
2014,08,09,12,32,20.80
2014,08,09,12,33,20.80
2014,08,09,12,34,20.80
2014,08,09,12,35,20.80
2014,08,09,12,36,20.80
2014,08,09,12,37,20.90
2014,08,09,12,38,21.00
2014,08,09,12,39,21.10
2014,08,09,12,40,21.10
2014,08,09,12,41,21.20
2014,08,09,12,42,21.20
2014,08,09,12,43,21.30
2014,08,09,12,44,21.30
2014,08,09,12,45,21.40
2014,08,09,12,46,21.40
2014,08,09,12,47,21.50
2014,08,09,12,48,21.50
2014,08,09,12,49,21.60
2014,08,09,12,50,21.60
2014,08,09,12,51,21.50
2014,08,09,12,52,21.50
2014,08,09,12,53,21.60
2014,08,09,12,54,21.60
2014,08,09,12,55,21.60
2014,08,09,12,56,21.60
2014,08,09,12,57,21.60
2014,08,09,12,58,21.70
2014,08,09,12,59,21.70
2014,08,09,13,00,21.80
2014,08,09,13,01,21.80
2014,08,09,13,02,21.80
2014,08,09,13,03,21.80
2014,08,09,13,04,21.70
2014,08,09,13,05,21.50
2014,08,09,13,06,21.40
2014,08,09,13,07,21.40
2014,08,09,13,08,21.40
2014,08,09,13,09,21.40
2014,08,09,13,10,21.50
2014,08,09,13,11,21.50
2014,08,09,13,12,21.50
2014,08,09,13,13,21.50
2014,08,09,13,14,21.50
2014,08,09,13,15,21.50
2014,08,09,13,16,21.60
2014,08,09,13,17,21.60
2014,08,09,13,18,21.70
2014,08,09,13,19,21.80
2014,08,09,13,20,21.80
2014,08,09,13,21,21.80
2014,08,09,13,22,21.90
2014,08,09,13,23,21.80
2014,08,09,13,24,21.80
2014,08,09,13,25,21.80
2014,08,09,13,26,21.70
2014,08,09,13,27,21.80
2014,08,09,13,28,21.80
2014,08,09,13,29,21.90
2014,08,09,13,30,22.00
2014,08,09,13,31,22.10
2014,08,09,13,32,22.20
2014,08,09,13,33,22.30
2014,08,09,13,34,22.40
2014,08,09,13,35,22.50
2014,08,09,13,36,22.50
2014,08,09,13,37,22.50
2014,08,09,13,38,22.50
2014,08,09,13,39,22.50
2014,08,09,13,40,22.40
2014,08,09,13,41,22.30
2014,08,09,13,42,22.20
2014,08,09,13,43,22.20
2014,08,09,13,44,22.10
2014,08,09,13,45,22.00
2014,08,09,13,46,21.90
2014,08,09,13,47,21.90
2014,08,09,13,48,21.90
2014,08,09,13,49,21.90
2014,08,09,13,50,21.90
2014,08,09,13,51,21.90
2014,08,09,13,52,21.90
2014,08,09,13,53,21.80
2014,08,09,13,54,21.80
2014,08,09,13,55,21.80
2014,08,09,13,56,21.80
2014,08,09,13,57,21.80
2014,08,09,13,58,21.80
2014,08,09,13,59,21.80
2014,08,09,14,00,21.80
2014,08,09,14,01,21.80
2014,08,09,14,02,21.80
2014,08,09,14,03,21.80
2014,08,09,14,04,21.90
2014,08,09,14,05,21.90
2014,08,09,14,06,22.10
2014,08,09,14,07,22.10
2014,08,09,14,08,22.20
2014,08,09,14,09,22.20
2014,08,09,14,10,22.30
2014,08,09,14,11,22.30
2014,08,09,14,12,22.40
2014,08,09,14,13,22.40
2014,08,09,14,14,22.40
2014,08,09,14,15,22.40
2014,08,09,14,16,22.30
2014,08,09,14,17,22.30
2014,08,09,14,18,22.30
2014,08,09,14,19,22.30
2014,08,09,14,20,22.30
2014,08,09,14,21,22.20
2014,08,09,14,22,22.20
2014,08,09,14,23,22.20
2014,08,09,14,24,22.20
2014,08,09,14,25,22.30
2014,08,09,14,26,22.30
2014,08,09,14,27,22.40
2014,08,09,14,28,22.40
2014,08,09,14,29,22.50
2014,08,09,14,30,22.60
2014,08,09,14,31,22.60
2014,08,09,14,32,22.60
2014,08,09,14,33,22.60
2014,08,09,14,34,22.70
2014,08,09,14,35,22.70
2014,08,09,14,36,22.70
2014,08,09,14,37,22.70
2014,08,09,14,38,22.70
2014,08,09,14,39,22.80
2014,08,09,14,40,22.80
2014,08,09,14,41,22.80
2014,08,09,14,42,22.80
2014,08,09,14,43,22.70
2014,08,09,14,44,22.70
2014,08,09,14,45,22.80
2014,08,09,14,46,22.80
2014,08,09,14,47,22.80
2014,08,09,14,48,22.80
2014,08,09,14,49,22.80
2014,08,09,14,50,22.70
2014,08,09,14,51,22.70
2014,08,09,14,52,22.70
2014,08,09,14,53,22.70
2014,08,09,14,54,22.80
2014,08,09,14,55,22.80
2014,08,09,14,56,22.80
2014,08,09,14,57,22.80
2014,08,09,14,58,22.80
2014,08,09,14,59,22.80
2014,08,09,15,00,22.80
2014,08,09,15,01,22.80
2014,08,09,15,02,22.80
2014,08,09,15,03,22.80
2014,08,09,15,04,22.80
2014,08,09,15,05,22.90
2014,08,09,15,06,22.90
2014,08,09,15,07,22.90
2014,08,09,15,08,22.80
2014,08,09,15,09,22.80
2014,08,09,15,10,22.80
2014,08,09,15,11,22.80
2014,08,09,15,12,22.80
2014,08,09,15,13,22.80
2014,08,09,15,14,22.80
2014,08,09,15,15,22.80
2014,08,09,15,16,22.90
2014,08,09,15,17,23.00
2014,08,09,15,18,23.10
2014,08,09,15,19,23.10
2014,08,09,15,20,23.10
2014,08,09,15,21,23.20
2014,08,09,15,22,23.20
2014,08,09,15,23,23.20
2014,08,09,15,24,23.30
2014,08,09,15,25,23.30
2014,08,09,15,26,23.30
2014,08,09,15,27,23.30
2014,08,09,15,28,23.30
2014,08,09,15,29,23.30
2014,08,09,15,30,23.30
2014,08,09,15,31,23.30
2014,08,09,15,32,23.30
2014,08,09,15,33,23.30
2014,08,09,15,34,23.30
2014,08,09,15,35,23.30
2014,08,09,15,36,23.30
2014,08,09,15,37,23.40
2014,08,09,15,38,23.50
2014,08,09,15,39,23.60
2014,08,09,15,40,23.70
2014,08,09,15,41,23.80
2014,08,09,15,42,23.90
2014,08,09,15,43,23.90
2014,08,09,15,44,24.00
2014,08,09,15,45,24.10
2014,08,09,15,46,24.10
2014,08,09,15,47,24.00
2014,08,09,15,48,23.90
2014,08,09,15,49,23.90
2014,08,09,15,50,23.80
2014,08,09,15,51,23.70
2014,08,09,15,52,23.60
2014,08,09,15,53,23.60
2014,08,09,15,54,23.60
2014,08,09,15,55,23.60
2014,08,09,15,56,23.60
2014,08,09,15,57,23.70
2014,08,09,15,58,23.70
2014,08,09,15,59,23.70
2014,08,09,16,00,23.80
2014,08,09,16,01,23.90
2014,08,09,16,02,24.00
2014,08,09,16,03,24.10
2014,08,09,16,04,24.10
2014,08,09,16,05,24.20
2014,08,09,16,06,24.20
2014,08,09,16,07,24.30
2014,08,09,16,08,24.30
2014,08,09,16,09,24.40
2014,08,09,16,10,24.40
2014,08,09,16,11,24.30
2014,08,09,16,12,24.30
2014,08,09,16,13,24.30
2014,08,09,16,14,24.30
2014,08,09,16,15,24.30
2014,08,09,16,16,24.30
2014,08,09,16,17,24.30
2014,08,09,16,18,24.40
2014,08,09,16,19,24.50
2014,08,09,16,20,24.60
2014,08,09,16,21,24.70
2014,08,09,16,22,24.80
2014,08,09,16,23,24.90
2014,08,09,16,24,25.00
2014,08,09,16,25,25.00
2014,08,09,16,26,25.10
2014,08,09,16,27,25.20
2014,08,09,16,28,25.30
2014,08,09,16,29,25.30
2014,08,09,16,30,25.30
2014,08,09,16,31,25.30
2014,08,09,16,32,25.30
2014,08,09,16,33,25.30
2014,08,09,16,34,25.30
2014,08,09,16,35,25.30
2014,08,09,16,36,25.30
2014,08,09,16,37,25.30
2014,08,09,16,38,25.40
2014,08,09,16,39,25.50
2014,08,09,16,40,25.60
2014,08,09,16,41,25.70
2014,08,09,16,42,25.70
2014,08,09,16,43,25.80
2014,08,09,16,44,25.80
2014,08,09,16,45,25.70
2014,08,09,16,46,25.70
2014,08,09,16,47,25.70
2014,08,09,16,48,25.60
2014,08,09,16,49,25.60
2014,08,09,16,50,25.60
2014,08,09,16,51,25.60
2014,08,09,16,52,25.50
2014,08,09,16,53,25.40
2014,08,09,16,54,25.40
2014,08,09,16,55,25.40
2014,08,09,16,56,25.40
2014,08,09,16,57,25.40
2014,08,09,16,58,25.50
2014,08,09,16,59,25.50
2014,08,09,17,00,25.50
2014,08,09,17,01,25.60
2014,08,09,17,02,25.60
2014,08,09,17,03,25.60
2014,08,09,17,04,25.50
2014,08,09,17,05,25.50
2014,08,09,17,06,25.50
2014,08,09,17,07,25.50
2014,08,09,17,08,25.50
2014,08,09,17,09,25.60
2014,08,09,17,10,25.70
2014,08,09,17,11,25.70
2014,08,09,17,12,25.70
2014,08,09,17,13,25.80
2014,08,09,17,14,25.90
2014,08,09,17,15,25.90
2014,08,09,17,16,26.00
2014,08,09,17,17,26.00
2014,08,09,17,18,26.10
2014,08,09,17,19,26.10